Regional Weather Roundup
Issued by NWS

Home | Current Version | Previous Version | Text Only | Print | Product List | Glossary Off
Versions: 1 2 3 4 5 6 7 8 9 10 11 12 13 14 15 16 17 18 19 20 21 22 23 24 25 26 27 28 29 30 31 32 33 34 35 36 37 38 39 40 41 42 43 44 45 46 47 48 49 50

000
ASUS45 KABQ 280710
RWRNM
NEW MEXICO REGIONAL WEATHER ROUNDUP
NATIONAL WEATHER SERVICE ALBUQUERQUE NM
1200 AM MST TUE FEB 28 2017

NOTE: "FAIR" MEANS FEW OR NO CLOUDS BELOW 12,000 FEET AGL WITH NO
       SIGNIFICANT WEATHER OR OBSTRUCTIONS TO VISION.

      THIS PRODUCT IS RELEASED AS TWO VERSIONS.  ONE VERSION NEAR
      THE TOP OF THE HOUR CONTAINING PRELIMINARY DATA FROM ALBUQUERQUE
      AND OTHER STATIONS.  A FINAL VERSION WITH ADDITIONAL DATA IS
      ISSUED ABOUT 10 MINUTES AFTER THE HOUR.

NMZ501-503-504-510>518-280800-
NORTHWEST PLATEAU/NORTHCENTRAL MOUNTAINS

CITY           SKY/WX    TMP DP  RH WIND       PRES   REMARKS
FARMINGTON     LGT RAIN  36  35  96 N7        29.77F WCI  30
LOS ALAMOS     DRIZZLE   36  32  84 S6        29.86F WCI  31
SANTA FE       CLOUDY    39  35  86 E6        29.84F WCI  35
TAOS             N/A     32  25  74 E5        29.85F WCI  27
ANGEL FIRE     LGT SNOW  30  28  92 SW7       29.84F WCI  24

$$
NMZ402-403-502-505>509-280800-
WESTCENTRAL MOUNTAINS/SOUTHWEST MOUNTAINS

CITY           SKY/WX    TMP DP  RH WIND       PRES   REMARKS
GALLUP         LGT SNOW  33  32  96 SW7       29.83F FOG     WCI  27
GRANTS         DRIZZLE   38  33  81 SW10G16   29.86S WCI  31
SILVER CITY    MOCLDY    49  35  58 NW8       29.95F

$$
NMZ407-409-411-412-280800-
SOUTHERN DESERTS

CITY           SKY/WX    TMP DP  RH WIND       PRES   REMARKS
DEMING         FAIR      51  32  48 NW5       29.93F
LAS CRUCES     FAIR      51  31  47 W6        29.94F
HOLLOMAN AFB   FAIR      56  29  36 S13       29.94F
ALAMOGORDO     MOCLDY    55  30  38 S12       29.93F
T OR C         FAIR      50  34  54 SW9       29.90R

$$
NMZ519>523-280800-
CENTRAL VALLEYS/CENTRAL HIGHLANDS

CITY           SKY/WX    TMP DP  RH WIND       PRES   REMARKS
ALBUQUERQUE    MOCLDY    46  32  58 SE7       29.85F
DOUBLE EAGLE   CLOUDY    37  30  77 CALM      29.85F
MORIARTY ARPT  CLOUDY    44  23  43 S7        29.88S
CLINES CORNERS CLOUDY    42  17  36 SW13      29.88F
BELEN          MOCLDY    49  22  35 SW6       29.86S
SOCORRO        FAIR      51  28  40 SW15G23   29.86R

$$
NMZ524>526-539-540-280800-
SOUTHCENTRAL MOUNTAINS

CITY           SKY/WX    TMP DP  RH WIND       PRES   REMARKS
RUIDOSO        MOCLDY    46  27  46 SW28G38   29.92F

$$
NMZ527>531-280800-
NORTHEAST HIGHLANDS/NORTHEAST PLAINS

CITY           SKY/WX    TMP DP  RH WIND       PRES   REMARKS
LAS VEGAS      FAIR      38  28  67 SW22G33   29.82F WCI  27
RATON          FAIR      37  23  56 S17       29.75F WCI  27
CLAYTON        FAIR      42  23  46 W7        29.74F

$$
NMZ532>537-280800-
EASTCENTRAL PLAINS

CITY           SKY/WX    TMP DP  RH WIND       PRES   REMARKS
TUCUMCARI      FAIR      53  18  25 W12       29.80S
CANNON AFB     FAIR      47  16  28 W3        29.84F
CLOVIS AIRPORT FAIR      46  19  34 SW9       29.84F

$$
NMZ028-029-538-280800-
SOUTHEAST PLAINS

CITY           SKY/WX    TMP DP  RH WIND       PRES   REMARKS
ROSWELL        FAIR      53  22  29 S9          N/A
ARTESIA        FAIR      50  27  40 S7        29.88S
CARLSBAD       FAIR      53  25  33 SE8       29.88F
HOBBS          FAIR      54  19  26 S7        29.91F


$$



USA.gov is the U.S. government's official web portal to all federal, state and local government web resources and services.